Regional Weather Roundup
Issued by NWS

Home | Current Version | Previous Version | Text Only | Print | Product List | Glossary On
Versions: 1 2 3 4 5 6 7 8 9 10 11 12 13 14 15 16 17 18 19 20 21 22 23 24 25 26 27 28 29 30 31 32 33 34 35 36 37 38 39 40 41 42 43 44 45 46 47 48 49 50
000
ASUS42 KFFC 271910
RWRGA
WEATHER ROUNDUP FOR GEORGIA
NATIONAL WEATHER SERVICE PEACHTREE CITY GA
300 PM EDT THU JUL 27 2017

NOTE: "FAIR" INDICATES FEW OR NO CLOUDS BELOW 12,000 FEET WITH NO
SIGNIFICANT WEATHER AND/OR OBSTRUCTIONS TO VISIBILITY.

* = USE WITH CAUTION. THE STATIONS MARKED WITH AN ASTERISK MAY NOT
REPORT WEATHER SUCH AS PRECIPITATION, FOG, OR THUNDER AND ARE NOT
QUALITY CONTROLLED BY NWS.

THE REMARK "TC" DENOTES TEMPERATURE READING IN DEGREES CELSIUS.

GAZ001>058-272000-
NORTH GEORGIA

CITY           SKY/WX    TMP DP  RH WIND       PRES   REMARKS
ATLANTA        MOSUNNY   89  70  53 VRB5      30.02F HX  94
ATHENS         MOSUNNY   86  75  69 S3        30.02F HX  95
CHAMBLEE       PTSUNNY   92  70  48 VRB5      30.02F HX  97
PEACHTREE CITY SUNNY     90  73  57 N3        30.02F HX  98
ROME           CLOUDY    80  72  76 N9        30.01R
WEST ATLANTA   MOSUNNY   89  73  59 VRB7      30.01F HX  97
GAINESVILLE    MOSUNNY   89  71  55 W9        30.05F HX  95
CARTERSVILLE   MOSUNNY   91  75  59 VRB3      30.01F HX 101


CITY           SKY/WX    TMP DP  RH WIND       PRES   REMARKS
MARIETTA       PTSUNNY   90  72  55 W6        30.02F HX  96
KENNESAW*      MOSUNNY   90  73  58 VRB3      30.03F HX  98
CANTON*        SUNNY     90  73  58 SW5       30.04F HX  98
$$

GAZ059>098-102>109-272000-
CENTRAL GEORGIA

CITY           SKY/WX    TMP DP  RH WIND       PRES   REMARKS
AUGUSTA-BUSH   MOSUNNY   91  74  57 VRB5      29.98F HX 100
AUGUSTA-DANIEL MOSUNNY   91  69  48 N3        30.00F HX  96
COLUMBUS       MOSUNNY   90  71  53 SW6       30.00F HX  96
MACON          PTSUNNY   90  72  55 CALM      30.00F HX  97
ROBINS AFB     SUNNY     89  73  58 N3        29.99F HX  97


CITY           SKY/WX    TMP DP  RH WIND       PRES   REMARKS
LAGRANGE*      MOSUNNY   93  76  58 W7        30.01F HX 105
SYLVANIA*      SUNNY     87  76  71 SE8       30.00F HX  97
MILLEDGEVILLE* SUNNY     90  72  55 CALM      30.00F HX  96
$$

GAZ099>101-110>166-272000-
SOUTH GEORGIA

CITY           SKY/WX    TMP DP  RH WIND       PRES   REMARKS
SAVANNAH       CLOUDY    84  74  71 E14       29.98F HX  91
VALDOSTA       CLOUDY    85  74  69 E7        29.99F HX  92
ALMA           CLOUDY    85  75  72 SE7       29.98F HX  93
ST SIMONS      CLOUDY    86  76  71 VRB6      29.98F HX  96
FT STEWART     PTSUNNY   84  73  71 E13       29.95F HX  90
ALBANY         MOSUNNY   90  72  55 VRB5      30.01F HX  97
HUNTER AFB     HVY RAIN  82  75  78 E5        29.95F
MOODY AFB      CLOUDY    85  73  66 CALM      29.97F HX  92
BRUNSWICK      CLOUDY    86  79  79 W3        29.99F HX  99


CITY           SKY/WX    TMP DP  RH WIND       PRES   REMARKS
BAINBRIDGE*    CLOUDY    91  77  62 NE8       29.99F HX 105
MOULTRIE*      MOSUNNY   88  70  55 N6        30.00F HX  92
VIDALIA*       MOSUNNY   90  75  62 NE3       29.98F HX 100
WAYCROSS*      DRIZZLE   83  83 100 CALM      30.00S HX  98
DOUGLAS*       CLOUDY    88  70  55 E5        29.99F HX  92
$$




USA.gov is the U.S. government's official web portal to all federal, state and local government web resources and services.